Location: Flitcham
(52.8000°N, 0.5667°E)
Time: 12:32:16
(UTC+00:00)

ISS - Pass Details

Date: 15 May 2026
Orbit: 413 x 422 km, 51.6° (Epoch: 7 June)

Event Time Altitude Azimuth Distance (km) Brightness Sun altitude
Rises 22:57:13 0° 280° (W) 2,354 0.4 -17.1°
Reaches altitude 10° 22:59:24 10° 272° (W) 1,490 -0.8 -17.2°
Enters shadow 23:01:59 33° 227° (SW) 720 -2.9 -17.3°
